Weather History for KWLD - January, 2013

Change the Weather History Date:

Wednesday, January 30, 2013

  Actual Average Record
Temperature  
Mean Temperature 30 °F -  
Max Temperature 36 °F 43 °F 64 °F (2012)
Min Temperature 23 °F 24 °F 12 °F (2004)
Degree Days  
Heating Degree Days 35    
Moisture  
Dew Point 23 °F    
Average Humidity 72    
Maximum Humidity 87    
Minimum Humidity 56    
Precipitation  
Precipitation 0.00 in - - ()
Sea Level Pressure  
Sea Level Pressure 29.92 in    
Wind  
Wind Speed 18 mph (NW)    
Max Wind Speed 30 mph    
Max Gust Speed 38 mph    
Visibility 10 miles    
Events      
Averages and records for this station are not official NWS values.
T = Trace of Precipitation, MM = Missing Value Source: NWS Daily Summary

Daily Weather History Graph

Daily Weather History Graph

Search for Another Location

Airport or City:

Trip Planner

Search our weather history database for the weather conditions in past years. The results will help you decide how hot, cold, wet, or windy it might be!

Date:

Astronomy

Jan. 30, 2013 Rise Set
Actual Time 7:32 AM CST 5:51 PM CST
Civil Twilight 7:04 AM CST 6:18 PM CST
Nautical Twilight 6:33 AM CST 6:49 PM CST
Astronomical Twilight 6:02 AM CST 7:20 PM CST
Moon 9:44 PM CST (1/30) 9:07 AM CST (1/30)
Length of Visible Light 11h 13m
Length of Day
10h 18m
Waning Gibbous, 87% of the Moon is Illuminated
Jan 30
Waning Gibbous
Feb 3
Last Quarter
Feb 10
New
Feb 17
First Quarter
Feb 25
Full

Hourly Weather History & Observations

Time (CST) Temp. Windchill Dew Point Humidity Pressure Visibility Wind Dir Wind Speed Gust Speed Precip Events Conditions
12:54 AM 35.1 °F 24.8 °F 30.9 °F 85% 29.64 in 10.0 mi NW 17.3 mph - N/A   Overcast
1:08 AM 35.6 °F 26.2 °F 32.0 °F 87% 29.63 in 10.0 mi NW 15.0 mph - N/A   Overcast
1:54 AM 36.0 °F 26.7 °F 32.0 °F 86% 29.67 in 10.0 mi NNW 15.0 mph - N/A   Overcast
2:54 AM 35.1 °F 23.8 °F 30.0 °F 82% 29.70 in 10.0 mi NNW 20.7 mph 26.5 mph N/A   Overcast
3:54 AM 35.1 °F 23.5 °F 28.9 °F 78% 29.72 in 10.0 mi NNW 21.9 mph 27.6 mph N/A   Overcast
4:54 AM 35.1 °F 24.8 °F 28.9 °F 78% 29.75 in 10.0 mi NW 17.3 mph 27.6 mph N/A   Overcast
5:54 AM 34.0 °F 22.4 °F 28.0 °F 79% 29.78 in 10.0 mi NNW 20.7 mph 28.8 mph N/A   Overcast
6:54 AM 33.1 °F 21.2 °F 28.9 °F 85% 29.82 in 10.0 mi NW 20.7 mph 28.8 mph N/A   Overcast
7:54 AM 33.1 °F 20.3 °F 27.0 °F 78% 29.87 in 10.0 mi NNW 24.2 mph 34.5 mph N/A   Mostly Cloudy
8:54 AM 30.0 °F 16.3 °F 23.0 °F 75% 29.93 in 10.0 mi NNW 24.2 mph 38.0 mph N/A   Mostly Cloudy
9:54 AM 30.0 °F 16.0 °F 21.0 °F 69% 29.97 in 10.0 mi NW 25.3 mph 35.7 mph N/A   Mostly Cloudy
10:06 AM 30.2 °F 15.2 °F 21.2 °F 69% 29.95 in 10.0 mi NNW 29.9 mph 38.0 mph N/A   Scattered Clouds
10:36 AM 30.2 °F 16.2 °F 21.2 °F 69% 29.96 in 10.0 mi NNW 25.3 mph 32.2 mph N/A   Mostly Cloudy
10:54 AM 30.9 °F 17.8 °F 21.0 °F 67% 29.99 in 10.0 mi NNW 23.0 mph 34.5 mph N/A   Mostly Cloudy
11:54 AM 30.9 °F 18.1 °F 21.0 °F 67% 30.01 in 10.0 mi NW 21.9 mph 28.8 mph N/A   Overcast
12:28 PM 33.8 °F 21.9 °F 19.4 °F 56% 29.97 in 10.0 mi NNW 21.9 mph 29.9 mph N/A   Scattered Clouds
12:39 PM 32.0 °F 19.5 °F 19.4 °F 60% 29.97 in 10.0 mi NNW 21.9 mph 29.9 mph N/A   Mostly Cloudy
12:54 PM 32.0 °F 20.8 °F 19.9 °F 61% 30.00 in 10.0 mi NW 17.3 mph 27.6 mph N/A   Mostly Cloudy
1:17 PM 33.8 °F 21.6 °F 19.4 °F 56% 29.97 in 10.0 mi NW 23.0 mph 29.9 mph N/A   Mostly Cloudy
2:54 PM 34.0 °F 22.4 °F 19.9 °F 56% 30.00 in 10.0 mi NW 20.7 mph - N/A   Overcast
3:54 PM 34.0 °F 24.2 °F 19.9 °F 56% 30.00 in 10.0 mi NW 15.0 mph - N/A   Mostly Cloudy
4:54 PM 34.0 °F 23.8 °F 19.9 °F 56% 30.01 in 10.0 mi WNW 16.1 mph - N/A   Clear
5:54 PM 30.0 °F 21.1 °F 18.0 °F 61% 30.04 in 10.0 mi WNW 10.4 mph - N/A   Clear
6:54 PM 26.1 °F 19.4 °F 18.0 °F 71% 30.04 in 10.0 mi WNW 5.8 mph - N/A   Clear
7:54 PM 26.1 °F 20.5 °F 19.0 °F 75% 30.05 in 10.0 mi WNW 4.6 mph - N/A   Clear
8:54 PM 26.1 °F - 19.0 °F 75% 30.05 in 10.0 mi Calm Calm - N/A   Clear
9:54 PM 26.1 °F 21.9 °F 19.0 °F 75% 30.04 in 10.0 mi ENE 3.5 mph - N/A   Clear
10:54 PM 24.1 °F 19.7 °F 19.9 °F 84% 30.06 in 10.0 mi South 3.5 mph - N/A   Clear
11:54 PM 23.0 °F 13.1 °F 19.0 °F 85% 30.06 in 10.0 mi South 9.2 mph - N/A   Clear